Temperature
17 17 16 16 16 15 15 15 15 15 14 13 13 13 13 13 13 13 13 13 13 14 14 15 15 15 15 15 15 15 15 15 15 15 14 14 14 14 15 14 13 13 13
18 17 16 16 16 16 15 15 15 15 14 14 13 13 13 13 13 12 12 12 13 13 14 14 15 15 15 15 15 15 15 15 15 14 14 15 14 14 14 14 14 13 12
18 18 17 16 16 16 15 15 15 15 15 14 14 14 13 13 13 13 13 13 13 13 13 13 14 14 15 15 15 15 15 15 14 14 14 14 14 14 14 14 14 13 12
18 18 17 16 16 16 16 15 15 15 14 14 14 14 14 14 13 13 13 13 13 13 13 13 13 14 14 15 15 15 15 15 14 14 13 14 14 14 14 14 14 14 13
18 17 17 16 16 16 15 15 15 14 14 14 14 14 14 14 14 14 14 13 13 13 13 13 13 14 14 15 15 15 15 15 15 14 14 13 14 14 14 14 14 13 13
17 17 17 16 16 16 16 15 15 15 15 14 14 14 14 14 14 14 14 14 14 14 14 14 14 14 15 15 15 15 15 14 14 14 14 14 14 14 15 14 14 13 12
17 17 16 16 16 16 16 16 16 16 15 15 14 14 14 14 15 15 14 14 14 14 14 14 14 14 14 15 15 15 15 15 15 14 14 14 14 13 14 14 14 14 13
17 16 15 15 16 16 16 16 16 16 15 15 15 15 15 14 15 14 14 14 13 14 14 14 14 14 14 14 14 14 14 14 15 14 14 14 13 13 13 14 14 13 13
16 15 15 15 15 16 16 16 16 16 16 16 15 15 15 14 14 14 14 14 13 14 13 13 13 14 14 14 14 14 14 14 14 14 14 14 13 13 13 13 13 13 12
15 14 14 15 15 15 15 15 15 15 15 15 15 15 14 14 14 14 14 13 13 14 13 13 14 14 14 14 14 14 13 14 14 14 14 14 13 13 13 12 13 13 13
13 13 13 13 14 14 14 14 14 14 13 13 13 13 13 13 13 13 13 13 13 13 13 13 14 14 14 13 13 13 13 13 13 13 13 12 12 12 12 12 12 12 12
12 12 12 12 13 13 13 13 12 12 12 12 12 12 12 12 12 12 12 13 12 12 12 13 13 14 13 13 13 12 12 12 12 12 12 12 12 12 12 12 12 12 12
11 11 11 11 12 12 12 11 11 11 11 11 11 11 11 11 12 12 12 12 12 12 12 12 13 13 13 12 12 12 12 12 12 12 12 12 12 12 12 11 11 11 11
11 11 11 11 10 10 10 10 10 10 10 11 11 11 11 11 11 11 12 12 12 12 12 12 12 12 12 11 11 12 12 12 11 11 11 11 12 12 12 11 11 11 11
11 11 11 11 10 11 11 10 10 11 11 11 11 11 11 11 11 11 11 12 12 12 12 11 11 11 11 11 11 11 11 11 11 11 11 11 11 11 11 11 11 11 11
12 11 11 11 11 11 11 11 11 11 11 11 11 11 11 11 11 11 11 11 11 12 11 11 11 11 11 11 11 11 11 11 11 10 10 10 10 10 10 10 10 10 11
11 11 11 10 10 11 11 11 11 11 11 11 10 10 10 11 11 11 11 11 11 11 11 11 11 10 10 10 10 10 10 10 10 10 10 10 10 10 10 10 10 10 10
11 11 11 10 10 10 10 10 10 10 10 10 10 10 10 10 11 11 11 10 10 10 10 10 10 10 10 10 10 10 10 10 10 10 10 10 10 10 10 10 10 10 10
11 11 11 10 10 10 10 10 10 10 10 9 9 9 9 9 10 10 10 10 10 10 9 9 9 9 9 9 9 9 9 9 9 10 10 10 10 10 10 10 10 10 9
11 11 11 11 11 10 10 10 10 10 10 9 9 9 9 9 9 9 9 9 9 9 9 9 9 9 9 9 9 9 9 9 9 9 9 9 9 10 10 9 9 9 9
11 11 11 11 10 10 10 10 10 10 10 9 9 9 9 9 9 9 9 9 9 9 9 9 9 9 9 9 9 9 9 9 9 9 9 9 9 9 9 9 9 9 9
11 11 10 10 10 10 10 10 10 10 9 9 9 9 9 9 9 9 10 10 10 10 9 9 9 9 9 9 9 9 9 9 9 9 9 9 9 9 9 9 9 9 9
11 10 10 10 10 10 10 10 10 10 9 9 9 9 9 9 9 9 9 9 9 9 9 9 9 9 9 9 9 9 9 8 8 9 9 8 8 8 8 9 9 8 8
10 10 10 10 10 10 10 10 10 10 10 10 9 9 9 9 9 9 9 9 9 9 9 9 9 9 9 9 9 9 9 9 9 8 8 8 8 8 8 8 8 8 8
10 10 10 10 10 10 10 10 10 10 10 10 10 9 9 9 9 9 9 9 9 9 8 8 8 8 8 8 8 8 9 9 9 9 8 8 8 8 8 8 8 8 7
10 10 10 10 10 10 10 10 10 10 10 9 9 9 9 9 8 8 8 8 8 8 8 8 8 8 8 8 8 8 8 8 8 9 9 8 8 8 8 8 7 7 7
Wind_Speed
9 7 6 5 5 5 5 6 6 6 7 8 8 8 9 9 9 8 8 10 8 6 5 7 10 10 9 9 9 9 9 9 9 6 6 7 11 10 9 8 7 6 7
10 9 7 6 5 5 5 6 7 7 7 8 8 8 8 9 9 9 9 8 6 3 3 6 9 9 10 9 9 11 10 11 10 9 7 7 11 11 10 9 8 7 6
11 10 9 8 7 6 6 6 7 8 8 8 9 10 10 10 10 10 9 9 7 6 6 8 9 9 10 9 11 11 10 10 10 9 8 7 7 9 10 9 9 7 7
11 10 9 9 8 8 7 7 8 8 8 8 9 9 10 11 11 11 11 11 12 12 11 10 10 12 12 11 10 12 11 11 10 9 8 8 7 8 10 9 9 8 8
10 10 9 9 8 8 8 9 9 9 9 8 7 8 8 8 9 11 12 13 14 14 13 13 12 12 11 10 9 10 10 9 9 9 10 8 8 8 10 10 9 8 9
8 9 8 8 9 10 10 10 10 11 11 10 10 9 9 7 7 8 9 10 11 13 13 13 12 11 13 13 13 12 9 11 11 11 11 12 13 13 11 10 9 9 7
6 7 8 9 10 11 11 11 11 12 12 12 12 11 11 9 9 8 10 9 10 11 12 11 10 9 11 12 14 15 15 16 14 13 13 15 14 13 14 13 12 12 8
4 5 7 8 9 10 10 11 12 11 11 11 11 12 11 9 10 9 9 12 11 11 11 12 11 12 12 12 11 12 13 14 14 15 14 12 10 10 13 13 13 11 8
2 1 2 4 6 8 10 11 10 10 11 11 11 11 11 10 10 9 9 10 10 11 10 10 11 11 9 8 10 11 11 10 7 8 7 5 2 7 10 9 9 10 9
6 6 5 5 3 3 5 7 7 9 10 9 10 11 12 10 10 9 10 8 9 8 7 7 5 4 5 7 8 7 7 6 4 4 5 6 7 9 13 12 10 10 9
7 7 8 8 6 5 2 1 3 5 7 8 9 9 9 8 9 8 9 7 7 6 6 5 5 6 5 5 5 3 1 1 4 5 5 5 5 6 9 10 8 8 8
7 7 8 8 7 6 5 4 4 5 6 6 6 6 6 6 6 8 9 8 6 6 5 5 5 8 6 5 4 3 4 3 3 4 4 4 4 5 6 7 6 6 8
6 7 7 7 7 6 5 6 5 5 4 4 4 4 4 5 5 6 8 8 6 4 3 6 8 9 7 6 5 6 6 4 3 4 5 5 4 5 5 5 7 7 8
6 6 6 6 7 6 5 4 5 4 3 3 1 1 2 3 4 5 6 6 7 5 6 9 9 7 5 5 7 7 5 4 5 5 5 4 3 4 5 5 5 6 5
4 5 5 6 6 5 5 5 4 4 3 3 2 2 2 1 1 2 3 5 7 6 8 7 7 7 6 5 4 4 4 4 4 4 4 4 4 4 5 5 5 6 7
3 4 4 4 4 4 4 4 8 7 7 6 6 5 3 3 4 2 2 3 7 8 5 5 4 4 4 5 5 5 5 5 5 4 4 5 5 5 6 5 5 7 9
2 2 1 2 2 2 1 1 2 3 5 8 9 8 6 5 2 5 8 9 6 3 3 3 3 3 2 3 3 4 4 4 4 4 5 5 5 5 6 6 7 7 9
1 2 0 0 1 1 1 0 1 1 2 3 6 8 8 9 9 11 11 8 3 1 1 1 2 2 3 3 4 4 4 4 4 5 5 6 6 6 6 7 7 9 9
1 1 1 1 1 0 0 0 1 3 3 3 3 4 6 7 7 5 3 2 3 2 1 1 2 2 3 3 4 4 5 5 5 5 5 6 6 6 7 7 8 9 9
3 3 1 1 1 2 1 2 3 4 4 3 4 3 3 3 2 2 0 1 0 1 1 1 2 3 4 4 4 5 6 5 5 6 6 6 6 6 7 8 7 7 7
4 4 3 1 1 2 2 3 4 3 3 4 4 4 5 3 2 2 1 1 1 1 1 2 2 3 4 4 5 5 6 6 6 6 6 6 6 6 6 6 6 7 6
5 5 4 3 3 2 2 3 4 4 4 4 4 3 1 2 2 2 2 1 1 1 2 1 1 2 3 4 4 5 5 6 6 5 6 6 6 6 6 5 5 5 4
5 5 4 4 4 4 3 3 4 4 4 4 4 3 2 2 2 2 2 2 2 1 2 2 2 2 2 2 3 4 5 5 5 5 5 6 6 6 6 6 7 6 6
6 6 5 5 5 5 4 4 4 4 4 4 4 4 4 3 3 4 3 3 2 2 2 3 4 5 5 4 3 4 5 6 6 5 6 6 6 5 5 5 5 6 5
7 6 5 5 5 5 5 4 4 5 4 4 4 4 4 4 4 4 4 4 4 5 6 6 5 6 7 9 8 9 10 9 7 6 4 4 4 4 3 4 4 4 5
7 7 6 5 5 5 4 4 4 5 5 4 4 4 3 3 4 4 5 5 5 6 6 6 7 9 10 9 10 13 13 11 8 5 3 2 2 2 2 3 4 4 5
Wind_Direction
188 190 197 201 203 205 204 194 192 187 180 185 190 197 196 189 179 166 159 156 165 186 206 219 223 223 218 215 220 227 233 240 244 227 187 187 188 197 178 196 190 200 157
185 185 198 198 200 211 204 194 190 189 192 195 193 203 196 181 175 168 162 156 156 185 247 252 238 220 223 222 221 226 229 233 236 228 195 197 200 199 189 190 195 206 190
181 184 195 201 205 213 211 197 196 197 198 200 197 204 206 195 185 181 175 170 175 206 238 258 260 239 226 228 229 233 231 233 234 227 198 184 200 201 196 195 198 197 203
184 189 200 209 209 213 212 206 206 205 203 203 199 204 209 206 200 195 193 192 195 205 217 231 249 256 250 247 239 239 230 228 229 223 198 184 188 196 197 199 199 197 204
194 202 211 218 216 216 211 211 212 211 211 211 207 204 204 206 204 201 201 205 207 210 215 220 229 246 271 277 268 252 228 221 224 224 215 195 190 184 202 203 202 195 201
208 220 220 223 221 221 219 216 215 212 215 216 218 215 208 206 182 203 226 224 226 223 224 226 226 230 243 244 251 259 250 229 226 228 225 216 209 205 198 195 195 191 201
222 232 226 223 222 224 222 218 215 214 214 214 219 219 218 204 173 201 223 238 238 238 236 233 226 229 231 238 231 230 238 242 246 246 241 238 229 206 193 194 199 200 210
230 239 232 225 222 222 220 217 214 211 207 209 212 217 223 208 186 204 210 232 239 237 236 236 229 228 224 229 233 235 238 232 229 238 250 257 250 213 199 203 203 205 199
55 320 273 246 230 218 217 218 212 205 203 202 203 206 211 206 188 201 211 233 238 236 231 228 228 231 207 213 241 247 247 246 235 245 270 285 254 204 202 206 189 186 195
42 30 24 20 357 277 235 222 209 207 210 206 206 206 205 203 180 196 217 233 237 230 221 217 207 237 159 194 233 251 255 241 218 211 218 215 218 205 200 207 192 198 204
32 34 34 32 33 31 34 147 184 196 200 201 202 204 205 200 180 195 216 239 237 224 206 201 189 158 165 191 247 261 280 212 203 200 197 200 201 198 201 220 218 219 219
39 38 35 35 40 50 67 91 121 140 149 161 178 188 198 194 198 191 209 234 263 225 208 192 163 157 171 188 213 124 125 153 178 183 189 191 191 191 198 210 233 238 244
41 38 33 39 48 56 82 103 109 118 130 148 174 191 197 192 180 186 203 210 234 239 154 95 124 153 168 185 181 168 181 185 190 201 207 205 201 196 187 196 211 222 230
36 31 29 33 45 58 74 95 100 96 102 113 125 189 211 204 196 195 193 184 184 180 140 125 130 143 152 128 162 186 199 192 205 214 214 205 187 188 188 184 193 193 205
31 35 38 45 48 55 72 57 46 61 40 20 21 360 347 282 43 291 236 201 192 177 157 159 162 161 160 167 182 187 187 185 205 213 209 205 204 209 202 189 189 191 203
20 34 37 46 62 66 76 83 54 51 54 48 39 18 20 355 323 264 209 117 116 142 168 169 174 185 186 184 190 198 204 209 211 216 220 217 213 216 216 204 203 209 217
29 40 42 31 57 84 108 134 129 103 76 61 53 43 32 17 67 126 122 117 124 183 200 169 172 183 200 212 220 230 225 219 220 233 247 249 241 230 224 218 216 224 231
91 85 34 28 312 286 261 272 31 88 118 90 64 48 46 60 86 109 124 130 128 169 147 156 172 188 202 213 218 232 246 248 247 249 252 258 257 251 242 235 229 231 235
173 146 88 42 354 300 225 26 74 91 101 110 112 81 67 80 90 101 199 196 155 161 186 236 258 262 259 252 242 240 241 242 245 250 258 262 262 255 251 248 246 244 244
159 90 19 1 105 117 121 98 94 105 108 104 98 98 128 154 137 134 112 30 73 157 207 245 267 276 273 267 263 262 260 253 248 249 255 261 262 259 258 257 255 252 247
168 155 176 205 98 99 108 117 119 117 108 95 83 65 15 68 82 70 52 21 351 331 307 306 318 303 289 280 271 265 265 267 262 262 264 263 261 259 258 259 260 254 246
177 176 182 175 145 134 127 134 134 128 122 115 107 106 9 41 65 67 62 48 23 302 313 315 287 275 280 284 283 279 272 270 268 263 262 259 257 256 253 249 249 247 235
176 174 176 168 154 149 158 133 131 124 124 123 124 126 113 87 73 66 64 52 30 23 8 328 318 332 326 295 279 273 274 274 275 271 265 258 247 243 243 245 246 244 238
169 169 173 169 164 163 152 135 125 126 134 132 123 109 99 87 71 56 44 29 17 21 17 359 357 0 1 350 326 307 293 289 284 275 271 267 259 249 240 241 245 247 247
167 162 161 157 153 155 152 145 136 131 128 115 102 97 92 85 73 55 36 28 24 36 46 43 31 25 24 24 18 5 351 335 308 289 280 276 273 258 241 234 232 232 229
167 160 155 153 152 155 157 154 143 133 126 117 110 102 93 78 66 57 44 42 44 47 47 44 32 27 19 12 6 360 358 356 347 326 297 294 291 281 259 243 234 228 225
Height
1485 1487 1488 1489 1489 1490 1490 1490 1491 1491 1492 1493 1494 1495 1496 1496 1497 1496 1497 1500 1507 1512 1517 1521 1525 1527 1529 1531 1532 1534 1535 1537 1538 1540 1539 1540 1541 1542 1543 1544 1544 1544 1543
1482 1484 1486 1487 1487 1488 1489 1489 1490 1490 1491 1492 1493 1493 1494 1495 1496 1497 1498 1499 1503 1509 1514 1518 1522 1524 1525 1527 1528 1529 1530 1532 1533 1535 1535 1536 1537 1539 1540 1541 1541 1541 1542
1479 1481 1483 1484 1485 1486 1488 1488 1489 1490 1491 1491 1492 1492 1493 1495 1496 1497 1499 1501 1504 1508 1511 1514 1518 1521 1522 1523 1524 1525 1526 1527 1528 1530 1530 1530 1533 1535 1536 1537 1538 1538 1539
1477 1478 1480 1482 1483 1484 1485 1486 1487 1488 1489 1491 1492 1492 1493 1494 1495 1497 1499 1502 1504 1507 1509 1512 1514 1517 1520 1521 1521 1521 1521 1522 1522 1524 1526 1525 1527 1529 1531 1533 1534 1535 1536
1475 1476 1478 1480 1480 1481 1482 1483 1484 1485 1487 1488 1490 1491 1492 1493 1495 1496 1498 1501 1503 1505 1508 1510 1512 1513 1515 1516 1516 1516 1516 1516 1517 1519 1521 1521 1522 1524 1526 1528 1530 1532 1533
1473 1474 1475 1476 1477 1478 1479 1480 1481 1482 1483 1485 1487 1489 1490 1491 1492 1494 1496 1498 1500 1502 1503 1504 1506 1508 1509 1510 1510 1511 1511 1512 1513 1514 1516 1517 1517 1518 1521 1524 1526 1527 1529
1470 1471 1471 1472 1472 1474 1475 1476 1477 1478 1479 1481 1482 1485 1487 1488 1489 1491 1492 1494 1496 1497 1498 1499 1500 1501 1503 1504 1505 1505 1506 1507 1508 1510 1511 1512 1514 1514 1516 1519 1521 1523 1525
1466 1467 1467 1467 1468 1469 1470 1471 1473 1474 1476 1477 1479 1481 1483 1485 1486 1488 1489 1490 1492 1492 1493 1494 1495 1497 1498 1499 1500 1500 1501 1502 1503 1504 1505 1506 1509 1510 1511 1514 1516 1519 1522
1463 1463 1463 1463 1464 1464 1465 1466 1468 1469 1471 1473 1475 1476 1478 1481 1482 1484 1485 1487 1488 1488 1488 1489 1490 1492 1493 1494 1495 1496 1497 1498 1499 1499 1499 1500 1502 1503 1505 1508 1511 1513 1515
1461 1461 1460 1460 1459 1459 1459 1461 1462 1464 1466 1468 1469 1471 1472 1475 1477 1480 1481 1483 1484 1485 1484 1485 1485 1487 1488 1489 1491 1492 1492 1493 1494 1494 1495 1496 1497 1498 1500 1504 1507 1509 1511
1460 1459 1458 1457 1456 1455 1455 1456 1457 1459 1461 1462 1464 1466 1468 1471 1473 1475 1477 1479 1480 1481 1481 1480 1481 1482 1484 1485 1487 1488 1488 1489 1490 1491 1491 1492 1493 1495 1497 1500 1503 1505 1507
1460 1459 1458 1457 1455 1454 1454 1454 1455 1457 1459 1461 1462 1464 1465 1467 1469 1471 1473 1475 1477 1478 1478 1478 1477 1479 1480 1482 1483 1484 1485 1486 1487 1488 1489 1489 1490 1492 1493 1496 1497 1499 1502
1461 1460 1459 1457 1455 1454 1454 1455 1457 1458 1460 1462 1463 1464 1465 1466 1467 1468 1470 1471 1473 1474 1474 1474 1475 1476 1477 1479 1480 1481 1483 1484 1485 1485 1486 1486 1487 1488 1489 1491 1493 1494 1496
1464 1462 1461 1459 1458 1456 1456 1457 1459 1461 1462 1463 1464 1464 1464 1464 1465 1466 1467 1468 1470 1471 1472 1472 1473 1473 1475 1477 1478 1479 1480 1481 1482 1483 1483 1483 1484 1484 1485 1486 1488 1490 1491
1466 1464 1463 1462 1460 1458 1458 1459 1460 1462 1463 1463 1463 1463 1463 1463 1463 1464 1464 1466 1468 1469 1470 1471 1472 1473 1474 1475 1476 1477 1477 1478 1478 1479 1479 1480 1480 1481 1482 1483 1484 1485 1486
1467 1466 1465 1464 1463 1462 1462 1462 1462 1463 1463 1463 1463 1462 1461 1461 1460 1461 1462 1464 1465 1467 1468 1470 1471 1472 1473 1474 1474 1475 1475 1475 1475 1476 1476 1476 1477 1477 1477 1478 1478 1479 1480
1467 1467 1466 1465 1465 1464 1464 1464 1464 1464 1463 1463 1462 1461 1460 1459 1459 1459 1461 1462 1464 1466 1468 1469 1469 1470 1471 1472 1472 1472 1473 1473 1473 1473 1473 1473 1473 1473 1473 1473 1473 1473 1474
1468 1467 1466 1465 1465 1465 1465 1464 1464 1463 1463 1462 1462 1461 1460 1460 1460 1460 1461 1463 1465 1466 1467 1468 1468 1468 1469 1469 1470 1470 1470 1470 1469 1469 1469 1469 1469 1468 1468 1468 1468 1468 1468
1468 1468 1466 1465 1465 1464 1464 1464 1463 1463 1462 1462 1462 1461 1462 1462 1462 1462 1463 1465 1465 1466 1466 1467 1467 1467 1467 1467 1467 1467 1467 1467 1467 1466 1466 1466 1465 1464 1463 1463 1463 1463 1462
1468 1467 1466 1466 1466 1465 1465 1465 1464 1464 1464 1464 1463 1463 1463 1463 1464 1464 1465 1465 1465 1465 1465 1466 1465 1465 1465 1465 1465 1464 1464 1464 1463 1463 1463 1462 1461 1460 1459 1458 1458 1457 1456
1467 1467 1466 1467 1467 1467 1466 1466 1466 1466 1466 1466 1465 1465 1464 1465 1465 1465 1465 1465 1465 1465 1465 1465 1464 1463 1463 1462 1462 1461 1461 1460 1460 1459 1459 1458 1457 1456 1455 1454 1453 1452 1451
1467 1467 1467 1467 1467 1467 1467 1467 1467 1467 1467 1467 1467 1467 1467 1466 1466 1466 1466 1466 1465 1465 1465 1464 1463 1462 1461 1460 1459 1458 1457 1456 1456 1455 1454 1453 1452 1452 1451 1450 1449 1448 1447
1466 1466 1466 1466 1467 1467 1468 1468 1468 1468 1468 1469 1469 1469 1468 1468 1468 1468 1467 1467 1466 1465 1464 1464 1463 1462 1460 1459 1457 1456 1454 1453 1452 1451 1449 1448 1447 1447 1446 1445 1445 1444 1444
1465 1465 1466 1466 1467 1468 1468 1469 1469 1469 1469 1470 1470 1470 1470 1470 1469 1468 1468 1467 1466 1465 1464 1463 1462 1461 1459 1458 1456 1454 1452 1450 1448 1446 1445 1444 1443 1442 1442 1441 1440 1439 1439
1464 1465 1466 1467 1467 1468 1469 1470 1470 1470 1470 1470 1471 1471 1470 1470 1470 1469 1468 1466 1465 1464 1463 1462 1460 1459 1458 1456 1454 1452 1450 1448 1446 1444 1442 1440 1439 1438 1437 1436 1435 1434 1433
1463 1464 1465 1466 1468 1469 1470 1470 1470 1470 1470 1471 1471 1471 1471 1470 1470 1469 1467 1466 1464 1463 1462 1461 1459 1458 1456 1455 1452 1450 1448 1446 1445 1443 1441 1439 1437 1436 1434 1433 1432 1430 1429